Showing default

NAVSTAR 70 (USA 251), 39741

Orbit data source: Space-Track

NAVSTAR 70 (USA 251), 39741 is a payload satellite owned by USAF SMC (US) in MEO that was launched on Sat, 17 May 2014 UTC via a DELTA 4M+(4,2) launch vehicle from the Air Force Eastern Test Range (AFETR). Payloads include a variety of satellites, spacecraft, and rockets equipped with specific instruments for various scientific and technological missions. These include communications satellites like Starlink; space stations such as the ISS; scientific satellites like the Hubble; Earth observation satellites from companies like Planet Labs, Umbra, and HawkEye 360; GPS; miniature CubeSats for education and research; and military/defense satellites.

Loading next visibility...
NAVSTAR 70 (USA 251) details
Identifier
39741, 2014-026A
Orbit
MEO
Last TLE update13 hours ago
Origin
Flag of USUSAF SMC (US)
ManufacturerBoeing/ES
MissionOperational Defense Navigation
Bus & MotorGPS IIF, AOCS
Mass1,630 kg wet, ~1,500 kg dry
Launch date (UTC)
2014-05-17 (11 years ago)
Launch vehicle
DELTA 4M+(4,2)
Launch site
Air Force Eastern Test Range (AFETR)
Object type
Payload
Rocket body
Debris
Shape & HBRBox + 2 Pan, Unknown HBR
Radar Cross Section13.960 m², Large (>1 m²)

Expand to show TLE details & history

TLE from 13 hours ago
0 NAVSTAR 70 (USA 251)
1 39741U 14026A   24360.99816341 -.00000075  00000-0  00000-0 0  9996
2 39741  56.6880 352.4322 0035776 314.9524  44.7782  2.00554811 77749
Epoch: 2024-12-25T23:57Z
Definitive object data (Epoch: 2024-12-25T23:57:21.318Z)
Latitude-0.00008°
Longitude-101.89415°
Altitude20,116.163 km
Speed3.884 km/s
True Right ascension23h 29m 42s
True Declination0° 00' 00"
Sunlit
Object was in daylight at TLE epoch
Visualization TLE readout
Latitude25.01641°
Longitude-84.0744°
Altitude20,159.776 km
Speed3.878 km/s
Apparent Right ascension00h 36m 59s
Apparent Declination13° 51' 18"
Sunlit
Object is in daylight
Visualization observer readout
Local Sidereal Time12:17:16
Azimuth354.081° N
Elevation-36.034°
Doppler factor1
Orbital elements
Apogee altitude20,277.949 km
Perigee altitude20,087.9 km
Semi-major axis26,561.062 km
Eccentricity0.0035776
Inclination56.688°
RAAN352.4322°
Arg. of periapsis314.9524°
True anomaly45.06788°
Mean anomaly44.7782°
Eccentric anomaly44.92295°
Mean motion0.50139 °/min
BSTARUnknown
Orbital period718.01 mins
Loading maneuver chart data...

NAVSTAR 70 (USA 251) Visibility forecast

Observer location: undefined°, undefined

Span
Click to sort rows by Start time (UTC) header in descending order
Start Az.
Max El. time (UTC)
Max El. Az.
Max El.
End time (UTC)
End Az.
334 mins2024-12-26 22:50:40.828Z179.77° S2024-12-27 01:25:40.828Z105.358° ESE44.479°2024-12-27 04:24:40.828Z62.619° ENE
|